Regional Weather Roundup
Issued by NWS

Home | Current Version | Previous Version | Text Only | Print | Product List | Glossary Off
Versions: 1 2 3 4 5 6 7 8 9 10 11 12 13 14 15 16 17 18 19 20 21 22 23 24 25 26 27 28 29 30 31 32 33 34 35 36 37 38 39 40 41 42 43 44 45 46 47 48 49 50

000
ASUS43 KDTX 170410
RWRMI
MICHIGAN HOURLY REGIONAL WEATHER ROUNDUP
NATIONAL WEATHER SERVICE DETROIT/PONTIAC MI
1100 PM EST MON JAN 16 2017

NOTE: "FAIR" INDICATES FEW OR NO CLOUDS BELOW 12,000 FEET WITH NO
SIGNIFICANT WEATHER AND/OR OBSTRUCTION TO VISIBILITY.

MIZ047>049-052>055-059>063-066>070-074>076-081>083-170500-
SOUTHEAST LOWER MICHIGAN

CITY           SKY/WX    TMP DP  RH WIND       PRES   REMARKS
ADRIAN         CLOUDY    32  32 100 E10       30.08F FOG     WCI  24
ALMA           LGT RAIN  32  32  99 E5        30.09F WCI  28
ANN ARBOR      MIX PCPN  32  31  96 NE9       30.09F FOG     WCI  24
BAD AXE        MIX PCPN  31  29  92 CALM      30.15F
CARO           LGT SNOW  32  32  99 SE6       30.12F WCI  26
DETROIT CITY   MIX PCPN  30  28  93 E7          N/A  WCI  23
DETROIT        LGT RAIN  33  30  88 E7        30.14F FOG     WCI  27
FLINT          MIX PCPN  32  31  96 E9        30.11F WCI  24
GROSSE ILE     MIX PCPN  32  31  94 E7        30.13F WCI  26
HILLSDALE      FOG       32  32 100 E9        30.03F VSB 3/4 WCI  24
HOWELL         MIX PCPN  32  31  96 E7        30.08F WCI  26

CITY           SKY/WX    TMP DP  RH WIND       PRES   REMARKS
JACKSON        CLOUDY    33  31  92 SE9       30.04F FOG     WCI  25
LAMBERTVILLE   CLOUDY    34  32  93 E6        30.09F FOG     WCI  29
LANSING        CLOUDY    33  30  88 E8        30.07F FOG     WCI  26
LAPEER         NOT AVBL
MASON          LGT RAIN  32  32  99 E7        30.06F WCI  26
MONROE         MIX PCPN  33  32  98 E6        30.10F WCI  27
MT. CLEMENS    FRZ RAIN  32  30  93 E8        30.12F WCI  25
PONTIAC        FRZ RAIN  31  28  89 SE9       30.10F FOG     WCI  23
PORT HOPE        N/A     32  30  92 SE8       30.15F WCI  25
PORT HURON     MIX PCPN  32  30  93 E5        30.17F WCI  27
TRI CITIES     MIX PCPN  32  32 100 E8        30.11F FOG     WCI  25
MIDLAND        MIX PCPN  33  31  95 E7        30.11F WCI  26
TROY           MIX PCPN  32  29  88 E3        30.16S
SAGINAW HB     MIX PCPN  32  30  93 E5        30.11F WCI  27
$$
MIZ043>046-050>051-056>058-064>065-071>073-077>080-170500-
SOUTHWEST LOWER MICHIGAN

CITY           SKY/WX    TMP DP  RH WIND       PRES   REMARKS
BATTLE CREEK   LGT RAIN  35  34  96 E6        30.02F FOG     WCI  30
BENTON HARBOR  LGT RAIN  38  36  92 E14       29.95F FOG     WCI  30
BIG RAPIDS     LGT SNOW  32  31  96 SE8       30.05F WCI  25
COLDWATER      CLOUDY    36  36 100 E10       30.01F FOG     WCI  28
FREMONT        DRIZZLE   33  33 100 E7        30.02F WCI  27
HOLLAND        LGT RAIN  35  33  92 E14       29.99F WCI  26
GRAND RAPIDS   LGT RAIN  33  31  92 E14       30.02F FOG     WCI  23
IONIA          MIX PCPN  32  32  99 E9        30.04F WCI  24
KALAMAZOO      CLOUDY    36  33  89 E7        30.01F FOG     WCI  30
LUDINGTON      LGT SNOW  32  32 100 E8        30.03F WCI  25
MARSHALL       LGT RAIN  34  34  99 E8        30.03F WCI  27
MOUNT PLEASANT MIX PCPN  32  31  98 E6        30.08F WCI  26
MUSKEGON       LGT RAIN  36  34  92 E10       30.01F FOG     WCI  28
SOUTH HAVEN    CLOUDY    36  35  98 E9G16     29.97F FOG     WCI  29
$$
MIZ016>042-170500-
NORTHERN LOWER MICHIGAN

CITY           SKY/WX    TMP DP  RH WIND       PRES   REMARKS
ALPENA         MOCLDY    22  16  78 CALM      30.14F
BEAVER ISLAND  CLOUDY    28  28 100 E5        30.09F WCI  23
BELLAIRE       CLOUDY    22  21  98 CALM      30.10F
CADILLAC       MIX PCPN  32  31  94 E6        30.04F WCI  26
CHARLEVOIX     PTCLDY    29  25  84 E5        30.12F WCI  24
FRANKFORT      LGT RAIN  33  32  95 E3        30.06F
GAYLORD        CLOUDY    29  20  69 CALM      30.08F
GRAYLING       CLOUDY    29  24  81 E5        30.10F WCI  24
HARBOR SPRINGS CLOUDY    24  22  91 NE5       30.11F WCI  19
HOUGHTON LAKE  MIX PCPN  30  27  88 E7        30.09F WCI  23
MANISTEE       MIX PCPN  32  31  96 E7        30.04F FOG     WCI  26
OSCODA         MOCLDY    31  23  73 S3        30.14F
PELLSTON       PTCLDY    22  19  89 CALM      30.12F
ROGERS CITY    CLOUDY    28  22  76 CALM      30.14F
TRAVERSE CITY  CLOUDY    34  26  72 NE3       30.07F
$$
MIZ007>008-015-170500-
EASTERN UPPER MICHIGAN

CITY           SKY/WX    TMP DP  RH WIND       PRES   REMARKS
KINROSS        CLOUDY    22  20  92 CALM      30.13S FOG
MACKINAC ISLAN CLOUDY    28  24  85 SE6       30.11F WCI  21
NEWBERRY       CLOUDY    19  18  97 SE5       30.10F WCI  12
S. S. MARIE    CLOUDY    25  21  85 E5        30.12F WCI  19
$$
MIZ004>006-011>014-085-170500-
CENTRAL UPPER MICHIGAN

CITY           SKY/WX    TMP DP  RH WIND       PRES   REMARKS
MANISTIQUE     CLOUDY    24  23  98 CALM      30.08F
ESCANABA       PTCLDY    22  20  92 CALM      30.08F
SAWYER-GWINN   CLOUDY    22  19  88 S3        30.04F
$$
MIZ001>003-009>011-084-170500-
WESTERN UPPER MICHIGAN

CITY           SKY/WX    TMP DP  RH WIND       PRES   REMARKS
IRON MOUNTAIN  CLOUDY    21  16  81 CALM      30.02F
HOUGHTON       CLOUDY    29  24  82 E7        30.02F WCI  22
COPPER HARBOR    N/A     26  24  92 S3        30.07F
IRONWOOD       CLOUDY    24  20  84 CALM      30.00F
$$

ABBREVIATIONS USED IN REMARKS
   TC - TEMPERATURE IN CELSIUS
  WCI - WIND CHILL INDEX
   HX - HEAT INDEX
  VSB - VISIBILITY





USA.gov is the U.S. government's official web portal to all federal, state and local government web resources and services.